Simultaneous Nadir Overpasses (SNOs) Predictions

Prediction of SNOs between AQUA and NOAA-19 Satellite Orbit:

Table of predicted SNOs for the next 14.0 days since TLE Epoch: 12/17/2023
Index Date (AQUA) Time (AQUA) Lat,Lon (AQUA) SZA (AQUA ) Date (NOAA-19) Time (NOAA-19) Lat,Lon (NOAA-19) SZA (NOAA-19 ) Distance(km) Time Diff (sec)
1 12/17/2023 03:56:08 -75.88, -64.66 80.82 12/17/2023 03:54:56 -75.78, -65.61 80.89 28.25 72
2 12/17/2023 04:45:35 76.03, 102.53 99.35 12/17/2023 04:45:48 76.02, 102.49 99.34 1.42 13
3 12/19/2023 08:37:06 -76.00,-135.22 80.62 12/19/2023 08:36:06 -75.99,-135.14 80.63 2.47 60
4 12/19/2023 09:26:31 76.05, 32.26 99.44 12/19/2023 09:27:02 76.02, 32.24 99.41 3.73 31
5 12/21/2023 13:18:01 -76.00, 154.57 80.59 12/21/2023 13:17:20 -76.01, 154.68 80.58 2.91 41
6 12/21/2023 14:07:26 76.06, -37.96 99.48 12/21/2023 14:08:15 76.06, -37.87 99.48 2.39 49
7 12/23/2023 17:58:55 -75.98, 84.43 80.61 12/23/2023 17:58:35 -75.98, 84.32 80.61 3.25 20
8 12/23/2023 18:48:20 76.04,-108.10 99.46 12/23/2023 18:49:29 76.05,-108.16 99.46 1.44 69
9 12/25/2023 22:39:49 -76.00, 14.20 80.64 12/25/2023 22:39:49 -75.98, 14.09 80.65 3.39 0
10 12/28/2023 02:31:15 75.80, 136.98 99.08 12/28/2023 02:30:04 75.76, 135.82 99.08 31.84 71
11 12/28/2023 03:20:43 -76.04, -56.13 80.67 12/28/2023 03:21:02 -76.03, -56.00 80.69 3.78 19
12 12/30/2023 07:12:11 75.97, 66.26 99.14 12/30/2023 07:11:13 75.96, 66.27 99.14 1.16 58



Historial Predications of SNOs between AQUA and NOAA-19
